Regional Weather Roundup
Issued by NWS Upton, NY

Current Version | Previous Version | Graphics & Text | Print | Product List | Glossary Off
Versions: 1 2 3 4 5 6 7 8 9 10 11 12 13 14 15 16 17 18 19 20 21 22 23 24 25 26 27 28 29 30 31 32 33 34 35 36 37 38 39 40 41 42 43 44 45 46 47 48 49 50

000
ASUS41 KOKX 280605
RWROKX

REGIONAL WEATHER ROUNDUP
NATIONAL WEATHER SERVICE NEW YORK NY
100 AM EST WED JAN 28 2015

NOTE: "FAIR" INDICATES FEW OR NO CLOUDS BELOW 12,000 FEET WITH NO
SIGNIFICANT WEATHER AND/OR OBSTRUCTIONS TO VISIBILITY.

NYZ071-072-176-178-NJZ106-104-280700-
NEW YORK CITY METRO AREA


CITY           SKY/WX    TMP DP  RH WIND       PRES   REMARKS
CENTRAL PARK   MOCLDY    18   6  59 N5        29.88R WCI  11
LAGUARDIA APRT MOCLDY    18   9  68 N12       29.86R WCI   5
KENNEDY INTL   CLOUDY    19   8  62 N14       29.87R WCI   6
NEWARK/LIBERTY MOCLDY    18   4  54 NW17      29.88R WCI   3
BRNX BOT. GARD   N/A    N/A N/A N/A N3        29.88R
TETERBORO      MOCLDY    18   3  52 NW12G17   29.87R WCI   5
$$

NYZ177-179-078>081-280700-
LONG ISLAND NEW YORK

CITY           SKY/WX    TMP DP  RH WIND       PRES   REMARKS
FARMINGDALE    CLOUDY    18   5  57 NW13G18   29.84R WCI   5
ISLIP          CLOUDY    16   7  67 NW17G26   29.80R WCI   0
SHIRLEY        LGT SNOW  16   9  74 NW13G22   29.82R WCI   2
WESTHAMPTON    LGT SNOW  16   8  71 NW14G25   29.80R WCI   2
MONTAUK POINT    N/A     18   9  68 NW15G24   29.75R WCI   4
$$

NYZ052-065-067-280700-
HUDSON VALLEY

CITY           SKY/WX    TMP DP  RH WIND       PRES   REMARKS
WHITE PLAINS   MOCLDY    14   4  64 NW12      29.81S WCI   0
NEWBURGH       MOCLDY    12   7  79 CALM      29.84S
MONTGOMERY     CLOUDY    11   5  77 W6        29.83F WCI   1
POUGHKEEPSIE   CLOUDY    16   5  62 NW5       29.85S WCI   9
ALBANY         CLOUDY    14   3  61 N6        29.88S WCI   5
$$

NJZ001-105-106-008-010-013-015-019>022-104-280700-
NEW JERSEY

CITY           SKY/WX    TMP DP  RH WIND       PRES   REMARKS
NEWARK/LIBERTY MOCLDY    18   4  54 NW17      29.88R WCI   3
TETERBORO      MOCLDY    18   3  52 NW12G17   29.87R WCI   5
CALDWELL       MOCLDY    16   0  49 NW8       29.88R WCI   5
MORRISTOWN     PTCLDY    19   1  45 NW13      29.88R WCI   7
SOMERVILLE     CLEAR     17   1  49 NW12      29.88R WCI   4
SUSSEX         PTCLDY    13  -4  46 VRB7      29.86S WCI   3
ANDOVER          N/A     13  -4  46 VRB7      29.87R WCI   3
TRENTON        PTCLDY    18   5  57 NW8       29.89R WCI   8
MILLVILLE      CLEAR     22   8  55 NW13G25   29.90R WCI  10
ATLANTIC CITY  PTCLDY    20   8  60 NW17      29.89R WCI   5
WRIGHTSTOWN    PTCLDY    18   6  61 NW13      29.87R WCI   4
TOMS RIVER     PTCLDY    18   9  68 NW9       29.88R WCI   6
BELMAR         PTCLDY    18   1  49 NW9       29.85R WCI   6
$$

PAZ047>061-062-071-280700-
EASTERN PENNSYLVANIA

CITY           SKY/WX    TMP DP  RH WIND       PRES   REMARKS
PHILADELPHIA   MOCLDY    21   7  54 NW12      29.94R WCI   9
ALLENTOWN      CLEAR     16   1  51 NW12      29.92R WCI   3
SCRANTON       CLEAR     12  -3  51 NW12      29.93S WCI  -2
$$

CTZ002-004>006-009-010-012-RIZ004-006-007-MAZ004-011-015-280700-
SOUTHERN NEW ENGLAND
 IN CT

CITY           SKY/WX    TMP DP  RH WIND       PRES   REMARKS
BRADLEY INTL   LGT SNOW  14   4  64 NW10      29.77S WCI   1
HARTFORD       CLOUDY    13   5  70 NW10G21   29.80S HAZE    WCI   0
DANBURY        CLOUDY    13   2  61 NW13G18   29.81S WCI  -2
WTRBRY/OXFORD  CLOUDY    12   0  57 N17G26    29.73F WCI  -5
BRIDGEPORT     CLOUDY    15   7  70 NW16G24   29.81S WCI  -1
MERIDEN        LGT SNOW  13   5  70 N12       29.79F WCI  -1
NEW HAVEN      FLURRIES  15   6  67 NW12      29.80R WCI   2
CHESTER        LGT SNOW  14   9  79 N14G23    29.74R WCI  -1
GROTON         CLOUDY    14   6  70 N18G26    29.73R WCI  -3
WILLIMANTIC    CLOUDY    13   4  67 NW12G17   29.74S WCI  -1

 IN RI

CITY           SKY/WX    TMP DP  RH WIND       PRES   REMARKS
PROVIDENCE     CLOUDY    15   4  61 NW13      29.70R WCI   1
BLOCK ISLAND   CLOUDY    16   7  67 NW14G25   29.70R WCI   1
WESTERLY       CLOUDY    14   6  70 NW9       29.73R WCI   2

 IN MA

CITY           SKY/WX    TMP DP  RH WIND       PRES   REMARKS
BOSTON         LGT SNOW  14   8  77 NW14G23   29.68R WCI  -1
WORCESTER      MOCLDY     9   2  73 NW17G31   29.63R WCI  -9
WESTFIELD      CLOUDY    13   1  59 NW15G22   29.77R WCI  -3
PROVINCETOWN   CLOUDY    21  19  93 N30G40    29.60R WCI   3
NANTUCKET      LGT SNOW  20  13  74 NW21G30   29.62R WCI   4
$$

ANZ330-335-338-340-345-350-353-355-280700-
COASTAL MARINE OBSERVATIONS


STATION/POSITION TIME  SKY/WX   TEMP    WIND        PRES    VSBY  WAVE
                                AIR SEA DIR/SP/G                  HT/PER
                 (UTC)          (F)     (DEG/KT/KT) (MB)    (MI)  (FT/S)
NY HARB ENTRANCE 0600            23 40  310/ 19/ 25 1010.0          5/14
4S FIRE IS       0500               38                N/A           4/13
20S FIRE ISLAND  0500               43              1009.0          7/ 5
23SW MTP         0600                                 N/A           6/13
HUDSON CANYON    NOT AVBL
EXECUTION ROCKS  0600            19 34  320/ 12/ 17   N/A
WESTERN LI SOUND 0600            19     320/ 16/ 19   N/A           1/ 2
CENTRAL LI SOUND 0500            17 35  320/ 21/ 29   N/A           3/ 4
EASTERN LI SOUND NOT AVBL
ROBBINS REEF     0600            18     330/ 18/ 24 1010.1
$$


>>>>>>>>>>>>>>>>>>>>>>>>>>>> KEY <<<<<<<<<<<<<<<<<<<<<<<<<<<
>                                                          <
>     SKY/WX - SKY CONDITION/PRESENT WEATHER               <
>     TMP    - TEMPERATURE IN FAHRENHEIT                   <
>     DP     - DEWPOINT IN FAHRENHEIT                      <
>     RH     - RELATIVE HUMIDITY IN PERCENT                <
>     WIND   - DIRECTION AND SPEED IN MPH                  <
>     PRES   - MEAN SEA LEVEL PRESSURE IN INCHES OF HG     <
>     WCI    - WIND CHILL INDEX                            <
>     VSB    - VISIBILITY IN MILES                         <
>     HX     - HEAT INDEX                                  <
>     TC     - TEMPERATURE IN CELSIUS                      <
>     VRB    - VARIABLE WIND DIRECTION                     <
>                                                          <
>>>>>>>>>>>>>>>>>>>>>>>>>>>> KEY <<<<<<<<<<<<<<<<<<<<<<<<<<<




USA.gov is the U.S. government's official web portal to all federal, state and local government web resources and services.